Погода в Саваштепе

Турция     39°22′58″N   27°39′19″E
темп.,
°C
ветер,
м/с
пор.,
м/с
влажн.,
%
обл.,
%
осадки,
мм/ч
давл.,
гПа
погр.,
м
8 марта, пн
пн800:000ссз11940 0.0 102223
03:00−1ссз11942 0.0 102122
06:00−1з01931 0.0 102122
09:00+1всв11830 0.0 1020187
12:00+7всв11500 0.0 1020575
15:00+10св124114 0.0 10171053
18:00+10в125466 0.0 1017131
21:00+5ююв016283 0.0 101722
9 марта, вт
вт900:00+4сз1167100 0.0 101822
03:00+3св1172100 0.0 101822
06:00+2ссв1173100 0.0 101822
09:00+4ссв2269100 0.0 101889
12:00+10св345266 0.0 1017577
15:00+13ссв554634 0.0 1016929
18:00+11ссв58550 0.0 1015520
21:00+5с22630 0.0 101625
10 марта, ср
ср1000:00+4с11740 0.0 101723
03:00+3с118344 0.0 101623
06:00+2с1187100 0.0 101522
09:00+5св0178100 0.0 101541
12:00+12всв1153100 0.0 1013349
15:00+17юз464098 0.0 10121757
18:00+15зюз46550 0.0 1011356
21:00+9з12660 0.0 101322
11 марта, чт
чт1100:00+7с118428 0.0 101422
03:00+6ссв228964 0.0 101439
06:00+5ссв249490 0.4 1014323
09:00+5ссв369695 3.3 1014357
12:00+6ссв5992100 4.1 1015599
15:00+5ссв61194100 8.1 1015746
18:00+5ссв81287100 0.4 1017922
21:00+3ссв81382100 0.4 1020976
12 марта, пт
пт1200:00+1ссв5138850 0.0 1023729
03:000ссв3119025 0.0 1024462
06:00−1ссв39890 0.0 1025320
09:00+2ссв48760 0.0 1025506
12:00+6ссв45560 0.0 1024747
15:00+9ссв43470 0.0 1023948
18:00+8ссв445425 0.0 1022632
21:00+4с127462 0.0 102223